Puerto Limon, Costa Rica

12:50 PM CST on August 18, 2017 (GMT -0600)
Limon International

Weather History for MRLM - January, 2013

Change the Weather History Date:

Tuesday, January 8, 2013

  Actual Average Record
Temperature  
Mean Temperature 78 °F -  
Max Temperature 86 °F 80 °F 86 °F (2009)
Min Temperature 70 °F 71 °F 68 °F (2006)
Cooling Degree Days 13    
Growing Degree Days 28 (Base 50)    
Moisture  
Dew Point 73 °F    
Average Humidity 74    
Maximum Humidity 94    
Minimum Humidity 59    
Precipitation  
Precipitation 0.00 in 0.38 in - ()
Sea Level Pressure  
Sea Level Pressure 29.83 in    
Wind  
Wind Speed 4 mph ()    
Max Wind Speed 7 mph    
Max Gust Speed -    
Visibility 7.1 miles    
Events      
Averages and records for this station are not official NWS values.
T = Trace of Precipitation, MM = Missing Value Source: Averaged Metar Reports

Daily Weather History Graph

Daily Weather History Graph

Search for Another Location

Airport or City:

Trip Planner

Search our weather history database for the weather conditions in past years. The results will help you decide how hot, cold, wet, or windy it might be!

Date:

Astronomy

Jan. 08, 2013 Rise Set
Actual Time 5:51 AM CST 5:26 PM CST
Civil Twilight 5:28 AM CST 5:48 PM CST
Nautical Twilight 5:02 AM CST 6:15 PM CST
Astronomical Twilight 4:36 AM CST 6:41 PM CST
Moon 2:27 AM CST (1/8) 2:25 PM CST (1/8)
Length of Visible Light 12h 19m
Length of Day
11h 34m
Waning Crescent, 13% of the Moon is Illuminated
Jan 8
Waning Crescent
Jan 11
New
Jan 18
First Quarter
Jan 26
Full
Feb 3
Last Quarter

Hourly Weather History & Observations

Time (CST) Temp. Heat Index Dew Point Humidity Pressure Visibility Wind Dir Wind Speed Gust Speed Precip Events Conditions
6:00 AM 71 °F - 69 °F 92% 29.86 in 9 mi South 3.5 mph - -   Overcast
6:44 AM 71.6 °F - 69.8 °F 94% 29.85 in - South 3.5 mph - N/A   Mostly Cloudy
7:00 AM 71.6 °F - 69.8 °F 94% 29.85 in 6.2 mi SSW 3.5 mph - N/A   Mostly Cloudy
8:00 AM 77.0 °F - 71.6 °F 83% 29.88 in - West 3.5 mph - N/A   Clear
9:00 AM 82 °F - 72 °F 66% 29.89 in 9 mi ESE 3.5 mph - -   Haze
9:00 AM 82.4 °F 87.2 °F 71.6 °F 70% 29.87 in - ESE 3.5 mph - N/A   Clear
10:00 AM 86.0 °F 93.4 °F 73.4 °F 66% 29.87 in 6.2 mi SE 6.9 mph - N/A   Partly Cloudy
11:00 AM 86.0 °F 95.1 °F 75.2 °F 70% 29.86 in 6.2 mi East 4.6 mph - N/A   Partly Cloudy
12:00 PM 86 °F - 74 °F 59% 29.85 in 9 mi East 5.8 mph - -   Haze
12:00 PM 86.0 °F 93.4 °F 73.4 °F 66% 29.83 in 6.2 mi East 5.8 mph - N/A   Scattered Clouds
1:00 PM 86.0 °F 93.4 °F 73.4 °F 66% 29.80 in 6.2 mi East 5.8 mph - N/A   Mostly Cloudy
2:00 PM 86.0 °F 95.1 °F 75.2 °F 70% 29.78 in 6.2 mi East 6.9 mph - N/A   Mostly Cloudy
3:00 PM 85 °F - 74 °F 64% 29.78 in 9 mi East 6.9 mph - -   Haze
3:00 PM 86.0 °F 95.1 °F 75.2 °F 70% 29.77 in 6.2 mi East 6.9 mph - N/A   Partly Cloudy
4:00 PM 84.2 °F 90.9 °F 73.4 °F 70% 29.77 in 6.2 mi NE 5.8 mph - N/A   Partly Cloudy
5:00 PM 82.4 °F 88.2 °F 73.4 °F 74% 29.79 in 6.2 mi NNE 3.5 mph - N/A   Partly Cloudy
5:51 PM 82.4 °F 89.5 °F 75.2 °F 79% 29.80 in 6.2 mi NE 5.8 mph - N/A   Partly Cloudy
6:00 PM 82 °F - 75 °F 73% 29.81 in 9 mi NE 5.8 mph - -   Haze
6:00 PM 82.4 °F 89.5 °F 75.2 °F 79% 29.80 in 6.2 mi NE 5.8 mph - N/A   Partly Cloudy